Weather History for Abbotsford, B. C., British Columbia

Change the Weather History Date:

Wednesday, May 1, 2013

  Actual Average Record
Temperature  
Mean Temperature 48 °F -  
Max Temperature 60 °F 63 °F - ()
Min Temperature 35 °F 44 °F - ()
Degree Days  
Heating Degree Days 18    
Moisture  
Dew Point 34 °F    
Average Humidity 58    
Maximum Humidity 87    
Minimum Humidity 29    
Precipitation  
Precipitation 0.00 in 0.12 in - ()
Sea Level Pressure  
Sea Level Pressure 30.56 in    
Wind  
Wind Speed 3 mph ()    
Max Wind Speed 8 mph    
Max Gust Speed 18 mph    
Visibility 15.0 miles    
Events      
T = Trace of Precipitation, MM = Missing Value Source: Averaged Metar Reports

Daily Weather History Graph

Daily Weather History Graph

Search for Another Location

Airport:

Trip Planner

Search our weather history database for the weather conditions in past years. The results will help you decide how hot, cold, wet, or windy it might be!

Date:

Astronomy

May. 01, 2013 Rise Set
Actual Time 5:47 AM PDT 8:26 PM PDT
Civil Twilight 5:12 AM PDT 9:01 PM PDT
Nautical Twilight 4:26 AM PDT 9:47 PM PDT
Astronomical Twilight 3:33 AM PDT 10:41 PM PDT
Moon 1:40 AM PDT (5/1) 11:33 AM PDT (5/1)
Length of Visible Light 15h 49m
Length of Day
14h 38m
Waning Gibbous, 58% of the Moon is Illuminated
May 1
Waning Gibbous
May 2
Last Quarter
May 9
New
May 17
First Quarter
May 24
Full

Hourly Weather History & Observations

Time (PDT) Temp. Windchill Dew Point Humidity Pressure Visibility Wind Dir Wind Speed Gust Speed Precip Events Conditions
12:00 AM 39.2 °F - 33.8 °F 81% 30.45 in 15.0 mi Calm Calm - N/A   Clear
1:00 AM 37.4 °F - 33.8 °F 87% 30.48 in 15.0 mi Calm Calm - N/A   Clear
2:00 AM 37.4 °F - 33.8 °F 87% 30.49 in 15.0 mi North 2.3 mph - N/A   Clear
3:00 AM 37.4 °F 34.9 °F 33.8 °F 87% 30.49 in 15.0 mi North 3.5 mph - N/A   Clear
4:00 AM 37.4 °F 33.8 °F 32.0 °F 81% 30.51 in 15.0 mi NNW 4.6 mph - N/A   Clear
5:00 AM 38 °F - 32 °F 73% 30.53 in 28 mi North 4.6 mph - -   Scattered Clouds
5:00 AM 37.4 °F 32.8 °F 32.0 °F 81% 30.53 in 30.0 mi North 5.8 mph - N/A   Clear
6:00 AM 37.4 °F 33.8 °F 32.0 °F 81% 30.55 in 30.0 mi North 4.6 mph - N/A   Clear
7:00 AM 39.2 °F 37.0 °F 33.8 °F 81% 30.58 in 30.0 mi NNE 3.5 mph - N/A   Clear
8:00 AM 42.8 °F - 35.6 °F 76% 30.59 in 30.0 mi North 2.3 mph - N/A   Clear
9:00 AM 46.4 °F 44.3 °F 35.6 °F 66% 30.60 in 30.0 mi East 4.6 mph - N/A   Clear
10:00 AM 50.0 °F - 33.8 °F 54% 30.61 in 30.0 mi East 5.8 mph - N/A   Partly Cloudy
11:00 AM 51 °F - 34 °F 40% 30.61 in 28 mi Calm Calm - -   Scattered Clouds
11:00 AM 51.8 °F - 33.8 °F 50% 30.61 in 30.0 mi Calm Calm - N/A   Partly Cloudy
12:00 PM 53.6 °F - 33.8 °F 47% 30.60 in 30.0 mi Calm Calm - N/A   Partly Cloudy
1:00 PM 55.4 °F - 35.6 °F 47% 30.60 in 30.0 mi South 2.3 mph - N/A   Partly Cloudy
2:00 PM 59.0 °F - 33.8 °F 39% 30.59 in 30.0 mi WSW 4.6 mph 18.4 mph N/A   Partly Cloudy
3:00 PM 59.0 °F - 33.8 °F 39% 30.59 in 30.0 mi West 3.5 mph - N/A   Partly Cloudy
4:00 PM 60.8 °F - 33.8 °F 36% 30.58 in 30.0 mi West 5.8 mph - N/A   Partly Cloudy
5:00 PM 60 °F - 36 °F 29% 30.57 in 28 mi West 4.6 mph - -   Clear
5:00 PM 60.8 °F - 35.6 °F 39% 30.57 in 30.0 mi WNW 4.6 mph - N/A   Partly Cloudy
6:00 PM 59.0 °F - 33.8 °F 39% 30.57 in 30.0 mi WSW 8.1 mph - N/A   Scattered Clouds
7:00 PM 59.0 °F - 28.4 °F 31% 30.56 in 30.0 mi West 3.5 mph - N/A   Scattered Clouds
8:00 PM 55.4 °F - 30.2 °F 38% 30.56 in 30.0 mi WSW 5.8 mph - N/A   Mostly Cloudy
9:00 PM 55.4 °F - 32.0 °F 41% 30.57 in 30.0 mi West 2.3 mph - N/A   Mostly Cloudy
10:00 PM 51.8 °F - 37.4 °F 58% 30.57 in 15.0 mi South 2.3 mph - N/A   Mostly Cloudy
11:00 PM 50 °F - 36 °F 49% 30.58 in 15 mi East 2.3 mph - -   Mostly Cloudy
11:00 PM 50.0 °F - 35.6 °F 58% 30.57 in 15.0 mi East 2.3 mph - N/A   Mostly Cloudy